,,Stat5,,Stat1,,Stat2,,Stat3,,Stat4,,Wind1,,Wind1,
time,status,PA1M_AVG,status,PR1M_SUM,status,RH1M_AVG,status,SR1M_AVG,status,TA1M_AVG,status,W1dAve1m,status,W1sAve1m,
2001-09-09, 00:00:00,VALID,919.243,VALID,0,VALID,98.4616,VALID,-0.0339617,VALID,18.9896,VALID,140,VALID,0.648438,
2001-09-09, 00:01:00,VALID,919.234,VALID,0,VALID,98.4158,VALID,0.0679233,VALID,19.0145,VALID,143,VALID,0.513158,
2001-09-09, 00:02:00,VALID,919.236,VALID,0,VALID,98.3408,VALID,0.0849042,VALID,19.0209,VALID,142,VALID,1.13326,
2001-09-09, 00:03:00,VALID,919.241,VALID,0,VALID,98.2276,VALID,0.0849042,VALID,19.0398,VALID,142,VALID,1.11266,
2001-09-09, 00:04:00,VALID,919.253,VALID,0,VALID,98.1374,VALID,0.0169808,VALID,19.047,VALID,142,VALID,1.17101,
2001-09-09, 00:05:00,VALID,919.241,VALID,0,VALID,98.0636,VALID,0.101885,VALID,19.053,VALID,144,VALID,1.06168,
2001-09-09, 00:06:00,VALID,919.242,VALID,0,VALID,98.0255,VALID,0.0509425,VALID,19.0401,VALID,138,VALID,0.964489,
2001-09-09, 00:07:00,VALID,919.242,VALID,0,VALID,98.0089,VALID,0.0339617,VALID,19.0602,VALID,117,VALID,0.743215,
2001-09-09, 00:08:00,VALID,919.243,VALID,0,VALID,97.9568,VALID,0.0679233,VALID,19.0634,VALID,108,VALID,1.31641,
2001-09-09, 00:09:00,VALID,919.244,VALID,0,VALID,97.8665,VALID,0.101885,VALID,19.0689,VALID,103,VALID,1.05173,
2001-09-09, 00:10:00,VALID,919.229,VALID,0,VALID,97.7711,VALID,0.0849042,VALID,19.0721,VALID,93,VALID,0.628084,
2001-09-09, 00:11:00,VALID,919.217,VALID,0,VALID,97.6936,VALID,0.0849042,VALID,19.0821,VALID,88,VALID,1.074,
2001-09-09, 00:12:00,VALID,919.203,VALID,0,VALID,97.644,VALID,0.101885,VALID,19.0853,VALID,60,VALID,0.848606,
2001-09-09, 00:13:00,VALID,919.189,VALID,0,VALID,97.6109,VALID,0.0679233,VALID,19.092,VALID,56,VALID,0.587891,
2001-09-09, 00:14:00,VALID,919.158,VALID,0,VALID,97.6007,VALID,0.0849042,VALID,19.0851,VALID,73,VALID,0.391314,
2001-09-09, 00:15:00,VALID,919.143,VALID,0,VALID,97.5486,VALID,0.0679233,VALID,19.0729,VALID,61,VALID,0.343133,
2001-09-09, 00:16:00,VALID,919.127,VALID,0,VALID,97.5651,VALID,0,VALID,19.0639,VALID,47,VALID,0.197991,
2001-09-09, 00:17:00,VALID,919.119,VALID,0,VALID,97.5664,VALID,-0.0169808,VALID,19.0644,VALID,47,VALID,0,
2001-09-09, 00:18:00,VALID,919.11,VALID,0,VALID,97.5651,VALID,-0.0169808,VALID,19.0542,VALID,74,VALID,0.0444878,
2001-09-09, 00:19:00,VALID,919.108,VALID,0,VALID,97.5867,VALID,-0.0679233,VALID,19.0542,VALID,127,VALID,0.132161,
2001-09-09, 00:20:00,VALID,919.111,VALID,0,VALID,97.5867,VALID,0,VALID,19.0773,VALID,81,VALID,0.272204,
2001-09-09, 00:21:00,VALID,919.114,VALID,0,VALID,97.5168,VALID,-0.0169808,VALID,19.0738,VALID,27,VALID,0.299696,
2001-09-09, 00:22:00,VALID,919.109,VALID,0,VALID,97.5117,VALID,0,VALID,19.0607,VALID,23,VALID,0.269097,
2001-09-09, 00:23:00,VALID,919.099,VALID,0,VALID,97.5028,VALID,-0.0339617,VALID,19.0577,VALID,37,VALID,0.381168,
2001-09-09, 00:24:00,VALID,919.114,VALID,0,VALID,97.5105,VALID,-0.0169808,VALID,19.0512,VALID,44,VALID,0.330134,
2001-09-09, 00:25:00,VALID,919.116,VALID,0,VALID,97.5206,VALID,0,VALID,19.0385,VALID,45,VALID,0.0177365,
2001-09-09, 00:26:00,VALID,919.118,VALID,0,VALID,97.5232,VALID,-0.0169808,VALID,19.0286,VALID,45,VALID,0,
2001-09-09, 00:27:00,VALID,919.096,VALID,0,VALID,97.5397,VALID,-0.0169808,VALID,19.0284,VALID,45,VALID,0,
2001-09-09, 00:28:00,VALID,919.073,VALID,0,VALID,97.5956,VALID,-0.0169808,VALID,19.0611,VALID,89,VALID,0,
2001-09-09, 00:29:00,VALID,919.044,VALID,0,VALID,97.5918,VALID,-0.0169808,VALID,19.0708,VALID,146,VALID,0,
2001-09-09, 00:30:00,VALID,919.023,VALID,0,VALID,97.616,VALID,-0.0169808,VALID,19.0897,VALID,162,VALID,0,
2001-09-09, 00:31:00,VALID,919.015,VALID,0,VALID,97.5766,VALID,0.0339617,VALID,19.1148,VALID,194,VALID,0.0671875,
2001-09-09, 00:32:00,VALID,919.002,VALID,0,VALID,97.4621,VALID,0.0169808,VALID,19.1178,VALID,228,VALID,0.333984,
2001-09-09, 00:33:00,VALID,918.988,VALID,0,VALID,97.3858,VALID,0.0339617,VALID,19.1213,VALID,241,VALID,0.357422,
2001-09-09, 00:34:00,VALID,918.996,VALID,0,VALID,97.4189,VALID,0.0169808,VALID,19.1049,VALID,246,VALID,0.21658,
2001-09-09, 00:35:00,VALID,919.005,VALID,0,VALID,97.4748,VALID,0.0169808,VALID,19.1017,VALID,247,VALID,0.240543,
2001-09-09, 00:36:00,VALID,918.997,VALID,0,VALID,97.5232,VALID,0.0169808,VALID,19.0989,VALID,251,VALID,0.813802,
2001-09-09, 00:37:00,VALID,918.981,VALID,0,VALID,97.5422,VALID,0.0509425,VALID,19.0826,VALID,243,VALID,0.649523,
2001-09-09, 00:38:00,VALID,918.971,VALID,0,VALID,97.5397,VALID,0,VALID,19.0793,VALID,243,VALID,0.429893,
2001-09-09, 00:39:00,VALID,918.965,VALID,0,VALID,97.5486,VALID,0.0169808,VALID,19.0992,VALID,241,VALID,0.285937,
2001-09-09, 00:40:00,VALID,918.969,VALID,0,VALID,97.574,VALID,0.0339617,VALID,19.1017,VALID,208,VALID,0.107475,
2001-09-09, 00:41:00,VALID,918.954,VALID,0,VALID,97.5766,VALID,0,VALID,19.1148,VALID,147,VALID,0.0376838,
2001-09-09, 00:42:00,VALID,918.946,VALID,0,VALID,97.5092,VALID,0.0509425,VALID,19.0987,VALID,76,VALID,0.437289,
2001-09-09, 00:43:00,VALID,918.936,VALID,0,VALID,97.5283,VALID,0,VALID,19.0955,VALID,57,VALID,0.740385,
2001-09-09, 00:44:00,VALID,918.924,VALID,0,VALID,97.5448,VALID,0.101885,VALID,19.0754,VALID,38,VALID,0.679241,
2001-09-09, 00:45:00,VALID,918.926,VALID,0,VALID,97.5969,VALID,0.0169808,VALID,19.083,VALID,30,VALID,0.636102,
2001-09-09, 00:46:00,VALID,918.929,VALID,0,VALID,97.6325,VALID,-0.0339617,VALID,19.0607,VALID,11,VALID,0.798214,
2001-09-09, 00:47:00,VALID,918.931,VALID,0,VALID,97.6592,VALID,-0.0169808,VALID,19.0517,VALID,13,VALID,1.20247,
2001-09-09, 00:48:00,VALID,918.962,VALID,0,VALID,97.6707,VALID,-0.0169808,VALID,19.0291,VALID,17,VALID,1.42383,
2001-09-09, 00:49:00,VALID,918.959,VALID,0,VALID,97.663,VALID,-0.0339617,VALID,19.003,VALID,12,VALID,1.27322,
2001-09-09, 00:50:00,VALID,918.953,VALID,0,VALID,97.6974,VALID,-0.101885,VALID,18.9739,VALID,8,VALID,1.15728,
2001-09-09, 00:51:00,VALID,918.943,VALID,0,VALID,97.8017,VALID,-0.0169808,VALID,18.9645,VALID,10,VALID,0.760634,
2001-09-09, 00:52:00,VALID,918.924,VALID,0,VALID,97.8868,VALID,-0.0509425,VALID,18.9613,VALID,15,VALID,0.236979,
2001-09-09, 00:53:00,VALID,918.916,VALID,0,VALID,97.9326,VALID,-0.0679233,VALID,18.9548,VALID,57,VALID,0.345395,
2001-09-09, 00:54:00,VALID,918.909,VALID,0,VALID,97.8589,VALID,-0.0849042,VALID,18.919,VALID,62,VALID,0.292411,
2001-09-09, 00:55:00,VALID,918.88,VALID,0,VALID,97.8996,VALID,-0.0849042,VALID,18.8999,VALID,47,VALID,0.292441,
2001-09-09, 00:56:00,VALID,918.839,VALID,0,VALID,97.9364,VALID,-0.0169808,VALID,18.877,VALID,43,VALID,0.607077,
2001-09-09, 00:57:00,VALID,918.821,VALID,0,VALID,97.9403,VALID,-0.0509425,VALID,18.8482,VALID,40,VALID,0.63788,
2001-09-09, 00:58:00,VALID,918.825,VALID,0,VALID,97.9568,VALID,-0.0509425,VALID,18.8194,VALID,36,VALID,0.339744,
2001-09-09, 00:59:00,VALID,918.823,VALID,0,VALID,98.0178,VALID,-0.0679233,VALID,18.8032,VALID,36,VALID,0.0256696,
2001-09-09, 01:00:00,VALID,918.815,VALID,0,VALID,98.0585,VALID,-0.0509425,VALID,18.7906,VALID,36,VALID,0,
2001-09-09, 01:01:00,VALID,918.821,VALID,0,VALID,98.1323,VALID,-0.0509425,VALID,18.7705,VALID,35,VALID,0,
2001-09-09, 01:02:00,VALID,918.797,VALID,0,VALID,98.2378,VALID,-0.0679233,VALID,18.7774,VALID,33,VALID,0,
2001-09-09, 01:03:00,VALID,918.799,VALID,0,VALID,98.2785,VALID,-0.0679233,VALID,18.7705,VALID,35,VALID,0.136502,
2001-09-09, 01:04:00,VALID,918.779,VALID,0,VALID,98.2976,VALID,-0.101885,VALID,18.7769,VALID,45,VALID,0.315972,
2001-09-09, 01:05:00,VALID,918.769,VALID,0,VALID,98.2887,VALID,-0.101885,VALID,18.7677,VALID,80,VALID,0.311678,
2001-09-09, 01:06:00,VALID,918.744,VALID,0,VALID,98.3294,VALID,-0.0169808,VALID,18.7412,VALID,90,VALID,0.477865,
2001-09-09, 01:07:00,VALID,918.742,VALID,0,VALID,98.4578,VALID,-0.0509425,VALID,18.7416,VALID,95,VALID,0.740234,
2001-09-09, 01:08:00,VALID,918.737,VALID,0,VALID,98.4705,VALID,-0.0169808,VALID,18.7347,VALID,111,VALID,0.789063,
2001-09-09, 01:09:00,VALID,918.726,VALID,0,VALID,98.4286,VALID,-0.0169808,VALID,18.7121,VALID,98,VALID,0.999107,
2001-09-09, 01:10:00,VALID,918.734,VALID,0,VALID,98.5417,VALID,-0.0679233,VALID,18.6897,VALID,95,VALID,1.06081,
2001-09-09, 01:11:00,VALID,918.724,VALID,0,VALID,98.5811,VALID,-0.0509425,VALID,18.6927,VALID,103,VALID,1.04527,
2001-09-09, 01:12:00,VALID,918.727,VALID,0,VALID,98.6981,VALID,-0.0169808,VALID,18.7026,VALID,99,VALID,1.03188,
2001-09-09, 01:13:00,VALID,918.733,VALID,0,VALID,98.7083,VALID,-0.0509425,VALID,18.7126,VALID,96,VALID,0.790064,
2001-09-09, 01:14:00,VALID,918.721,VALID,0,VALID,98.7312,VALID,-0.0679233,VALID,18.716,VALID,72,VALID,0.762723,
2001-09-09, 01:15:00,VALID,918.711,VALID,0,VALID,98.7185,VALID,-0.0679233,VALID,18.6932,VALID,68,VALID,0.955798,
2001-09-09, 01:16:00,VALID,918.688,VALID,0,VALID,98.7414,VALID,-0.0169808,VALID,18.6964,VALID,68,VALID,0.866071,
2001-09-09, 01:17:00,VALID,918.669,VALID,0,VALID,98.7248,VALID,-0.0509425,VALID,18.6867,VALID,79,VALID,0.711806,
2001-09-09, 01:18:00,VALID,918.656,VALID,0,VALID,98.7019,VALID,-0.0339617,VALID,18.6572,VALID,92,VALID,0.657118,
2001-09-09, 01:19:00,VALID,918.63,VALID,0,VALID,98.7821,VALID,-0.0169808,VALID,18.6572,VALID,99,VALID,1.03407,
2001-09-09, 01:20:00,VALID,918.606,VALID,0,VALID,98.8431,VALID,-0.0169808,VALID,18.6964,VALID,108,VALID,0.992393,
2001-09-09, 01:21:00,VALID,918.566,VALID,0,VALID,98.8571,VALID,-0.0339617,VALID,18.7063,VALID,104,VALID,0.932509,
2001-09-09, 01:22:00,VALID,918.543,VALID,0,VALID,98.8584,VALID,-0.0509425,VALID,18.719,VALID,103,VALID,1.00391,
2001-09-09, 01:23:00,VALID,918.494,VALID,0,VALID,98.8774,VALID,-0.0679233,VALID,18.729,VALID,90,VALID,0.809005,
2001-09-09, 01:24:00,VALID,918.463,VALID,0,VALID,98.8545,VALID,-0.0339617,VALID,18.7093,VALID,87,VALID,0.631027,
2001-09-09, 01:25:00,VALID,918.446,VALID,0,VALID,98.8838,VALID,-0.0679233,VALID,18.716,VALID,100,VALID,0.93201,
2001-09-09, 01:26:00,VALID,918.439,VALID,0,VALID,98.9181,VALID,-0.0849042,VALID,18.7128,VALID,108,VALID,1.19692,
2001-09-09, 01:27:00,VALID,918.421,VALID,0,VALID,98.9321,VALID,-0.0339617,VALID,18.7093,VALID,99,VALID,1.15245,
2001-09-09, 01:28:00,VALID,918.427,VALID,0,VALID,98.9537,VALID,-0.0849042,VALID,18.7091,VALID,88,VALID,0.809896,
2001-09-09, 01:29:00,VALID,918.439,VALID,0,VALID,98.9575,VALID,-0.0679233,VALID,18.7029,VALID,95,VALID,1.00558,
2001-09-09, 01:30:00,VALID,918.425,VALID,0,VALID,98.9931,VALID,-0.0509425,VALID,18.6967,VALID,114,VALID,1.0148,
2001-09-09, 01:31:00,VALID,918.429,VALID,0,VALID,98.9931,VALID,-0.0339617,VALID,18.6994,VALID,130,VALID,0.685268,
2001-09-09, 01:32:00,VALID,918.409,VALID,0,VALID,99.0148,VALID,-0.0339617,VALID,18.6997,VALID,147,VALID,0.65625,
2001-09-09, 01:33:00,VALID,918.398,VALID,0,VALID,99.0249,VALID,-0.0339617,VALID,18.7031,VALID,157,VALID,0.652127,
2001-09-09, 01:34:00,VALID,918.405,VALID,0,VALID,99.0402,VALID,-0.0509425,VALID,18.693,VALID,153,VALID,0.782986,
2001-09-09, 01:35:00,VALID,918.383,VALID,0,VALID,99.0516,VALID,-0.0169808,VALID,18.7059,VALID,150,VALID,0.377878,
2001-09-09, 01:36:00,VALID,918.362,VALID,0,VALID,99.0415,VALID,-0.0169808,VALID,18.7056,VALID,130,VALID,0.0833333,
2001-09-09, 01:37:00,VALID,918.347,VALID,0,VALID,99.0377,VALID,-0.0169808,VALID,18.683,VALID,93,VALID,0.460069,
2001-09-09, 01:38:00,VALID,918.319,VALID,0,VALID,99.0555,VALID,-0.0169808,VALID,18.686,VALID,67,VALID,0.438734,
2001-09-09, 01:39:00,VALID,918.323,VALID,0,VALID,99.0237,VALID,-0.0169808,VALID,18.6634,VALID,49,VALID,0.508036,
2001-09-09, 01:40:00,VALID,918.295,VALID,0,VALID,98.9474,VALID,0,VALID,18.5998,VALID,45,VALID,0.827914,
2001-09-09, 01:41:00,VALID,918.281,VALID,0,VALID,98.9003,VALID,0,VALID,18.5342,VALID,28,VALID,1.02022,
2001-09-09, 01:42:00,VALID,918.256,VALID,0,VALID,98.9207,VALID,0,VALID,18.4895,VALID,25,VALID,0.939823,
2001-09-09, 01:43:00,VALID,918.222,VALID,0,VALID,99.0262,VALID,0,VALID,18.528,VALID,19,VALID,0.902244,
2001-09-09, 01:44:00,VALID,918.193,VALID,0,VALID,99.0631,VALID,0,VALID,18.5444,VALID,19,VALID,1.14911,
2001-09-09, 01:45:00,VALID,918.174,VALID,0,VALID,99.0618,VALID,-0.0169808,VALID,18.5479,VALID,30,VALID,1.12685,
2001-09-09, 01:46:00,VALID,918.158,VALID,0,VALID,99.0109,VALID,-0.0169808,VALID,18.5054,VALID,40,VALID,0.837277,
2001-09-09, 01:47:00,VALID,918.141,VALID,0,VALID,99.0542,VALID,-0.0339617,VALID,18.4994,VALID,39,VALID,0.845703,
2001-09-09, 01:48:00,VALID,918.119,VALID,0,VALID,99.0885,VALID,-0.0169808,VALID,18.5416,VALID,46,VALID,0.874132,
2001-09-09, 01:49:00,VALID,918.087,VALID,0,VALID,99.0936,VALID,-0.0169808,VALID,18.558,VALID,40,VALID,0.897786,
2001-09-09, 01:50:00,VALID,918.056,VALID,0,VALID,99.0478,VALID,-0.0679233,VALID,18.5481,VALID,32,VALID,0.844367,
2001-09-09, 01:51:00,VALID,918.048,VALID,0,VALID,98.955,VALID,-0.0169808,VALID,18.5193,VALID,34,VALID,0.745443,
2001-09-09, 01:52:00,VALID,918.021,VALID,0,VALID,98.8952,VALID,-0.0509425,VALID,18.4771,VALID,33,VALID,0.552083,
2001-09-09, 01:53:00,VALID,918.028,VALID,0,VALID,98.852,VALID,-0.0169808,VALID,18.451,VALID,20,VALID,0.285156,
2001-09-09, 01:54:00,VALID,918.024,VALID,0,VALID,98.791,VALID,-0.0509425,VALID,18.4187,VALID,26,VALID,0.152679,
2001-09-09, 01:55:00,VALID,918.042,VALID,0,VALID,98.7757,VALID,-0.0339617,VALID,18.4028,VALID,34,VALID,0.362542,
2001-09-09, 01:56:00,VALID,918.044,VALID,0,VALID,98.7604,VALID,0,VALID,18.3961,VALID,36,VALID,0.471048,
2001-09-09, 01:57:00,VALID,918.057,VALID,0,VALID,98.6981,VALID,-0.0169808,VALID,18.3739,VALID,43,VALID,0.624789,
2001-09-09, 01:58:00,VALID,918.074,VALID,0,VALID,98.6791,VALID,-0.0339617,VALID,18.3613,VALID,52,VALID,0.739984,
2001-09-09, 01:59:00,VALID,918.095,VALID,0,VALID,98.6892,VALID,-0.0849042,VALID,18.3479,VALID,47,VALID,0.690402,
2001-09-09, 02:00:00,VALID,918.091,VALID,0,VALID,98.707,VALID,-0.0339617,VALID,18.3414,VALID,45,VALID,0.645765,
2001-09-09, 02:01:00,VALID,918.087,VALID,0,VALID,98.7782,VALID,-0.0339617,VALID,18.3739,VALID,46,VALID,0.285045,
2001-09-09, 02:02:00,VALID,918.063,VALID,0,VALID,98.8291,VALID,-0.0509425,VALID,18.3866,VALID,46,VALID,0.00672743,
2001-09-09, 02:03:00,VALID,918.053,VALID,0,VALID,98.7871,VALID,-0.0339617,VALID,18.406,VALID,63,VALID,0.00108507,
2001-09-09, 02:04:00,VALID,918.047,VALID,0,VALID,98.7312,VALID,-0.0169808,VALID,18.364,VALID,69,VALID,0,
2001-09-09, 02:05:00,VALID,918.043,VALID,0,VALID,98.6841,VALID,-0.0169808,VALID,18.3451,VALID,69,VALID,0,
2001-09-09, 02:06:00,VALID,918.043,VALID,0,VALID,98.6714,VALID,0,VALID,18.322,VALID,69,VALID,0,
2001-09-09, 02:07:00,VALID,918.026,VALID,0,VALID,98.6307,VALID,-0.0169808,VALID,18.296,VALID,71,VALID,0,
2001-09-09, 02:08:00,VALID,918.01,VALID,0,VALID,98.557,VALID,0,VALID,18.2508,VALID,84,VALID,0.0842928,
2001-09-09, 02:09:00,VALID,918.014,VALID,0,VALID,98.454,VALID,-0.0339617,VALID,18.1931,VALID,87,VALID,0.000223214,
2001-09-09, 02:10:00,VALID,918.008,VALID,0,VALID,98.3395,VALID,0,VALID,18.099,VALID,58,VALID,0.0705236,
2001-09-09, 02:11:00,VALID,917.997,VALID,0,VALID,98.3853,VALID,-0.0169808,VALID,18.0739,VALID,53,VALID,0.230239,
2001-09-09, 02:12:00,VALID,917.974,VALID,0,VALID,98.4514,VALID,-0.0339617,VALID,18.0513,VALID,59,VALID,0.344383,
2001-09-09, 02:13:00,VALID,917.974,VALID,0,VALID,98.5061,VALID,0,VALID,18.0347,VALID,108,VALID,0.414463,
2001-09-09, 02:14:00,VALID,917.954,VALID,0,VALID,98.5913,VALID,-0.0679233,VALID,18.0379,VALID,139,VALID,0.574107,
2001-09-09, 02:15:00,VALID,917.953,VALID,0,VALID,98.721,VALID,0,VALID,18.0637,VALID,148,VALID,0.722039,
2001-09-09, 02:16:00,VALID,917.936,VALID,0,VALID,98.8533,VALID,0.101885,VALID,18.114,VALID,148,VALID,0.451786,
2001-09-09, 02:17:00,VALID,917.929,VALID,0,VALID,98.8851,VALID,0.0849042,VALID,18.1564,VALID,147,VALID,0.341363,
2001-09-09, 02:18:00,VALID,917.912,VALID,0,VALID,98.8914,VALID,0.0509425,VALID,18.1952,VALID,140,VALID,0.17296,
2001-09-09, 02:19:00,VALID,917.907,VALID,0,VALID,98.8812,VALID,0.0339617,VALID,18.2113,VALID,139,VALID,0.345052,
2001-09-09, 02:20:00,VALID,917.896,VALID,0,VALID,98.8596,VALID,0.0509425,VALID,18.2143,VALID,139,VALID,0.608347,
2001-09-09, 02:21:00,VALID,917.899,VALID,0,VALID,98.8494,VALID,0.0849042,VALID,18.2183,VALID,148,VALID,0.54362,
2001-09-09, 02:22:00,VALID,917.905,VALID,0,VALID,98.8444,VALID,0.0849042,VALID,18.2309,VALID,138,VALID,0.541233,
2001-09-09, 02:23:00,VALID,917.891,VALID,0,VALID,98.8647,VALID,0.0849042,VALID,18.2014,VALID,133,VALID,0.549548,
2001-09-09, 02:24:00,VALID,917.887,VALID,0,VALID,98.8622,VALID,0.0339617,VALID,18.215,VALID,102,VALID,0.395536,
2001-09-09, 02:25:00,VALID,917.869,VALID,0,VALID,98.8202,VALID,0.0679233,VALID,18.2019,VALID,104,VALID,0.466639,
2001-09-09, 02:26:00,VALID,917.877,VALID,0,VALID,98.8825,VALID,0.0849042,VALID,18.2113,VALID,104,VALID,0.634191,
2001-09-09, 02:27:00,VALID,917.889,VALID,0,VALID,98.9003,VALID,0.0509425,VALID,18.2764,VALID,100,VALID,0.710726,
2001-09-09, 02:28:00,VALID,917.878,VALID,0,VALID,98.8227,VALID,0.0509425,VALID,18.3274,VALID,95,VALID,0.836138,
2001-09-09, 02:29:00,VALID,917.886,VALID,0,VALID,98.6791,VALID,0.0849042,VALID,18.3693,VALID,77,VALID,0.742857,
2001-09-09, 02:30:00,VALID,917.87,VALID,0,VALID,98.4133,VALID,0.0679233,VALID,18.4053,VALID,79,VALID,0.687911,
2001-09-09, 02:31:00,VALID,917.855,VALID,0,VALID,98.1768,VALID,-0.0169808,VALID,18.403,VALID,67,VALID,0.765848,
2001-09-09, 02:32:00,VALID,917.839,VALID,0,VALID,97.9593,VALID,0.0169808,VALID,18.3938,VALID,67,VALID,0.611762,
2001-09-09, 02:33:00,VALID,917.836,VALID,0,VALID,97.8309,VALID,-0.0169808,VALID,18.3739,VALID,72,VALID,0.747613,
2001-09-09, 02:34:00,VALID,917.824,VALID,0,VALID,97.7775,VALID,0,VALID,18.361,VALID,83,VALID,0.783637,
2001-09-09, 02:35:00,VALID,917.812,VALID,0,VALID,97.7902,VALID,-0.0339617,VALID,18.3479,VALID,75,VALID,0.687706,
2001-09-09, 02:36:00,VALID,917.798,VALID,0,VALID,97.6503,VALID,0,VALID,18.3421,VALID,67,VALID,0.62717,
2001-09-09, 02:37:00,VALID,917.804,VALID,0,VALID,97.644,VALID,0,VALID,18.316,VALID,67,VALID,0.442057,
2001-09-09, 02:38:00,VALID,917.799,VALID,0,VALID,97.7444,VALID,-0.0169808,VALID,18.3163,VALID,73,VALID,0.300576,
2001-09-09, 02:39:00,VALID,917.805,VALID,0,VALID,97.8296,VALID,0,VALID,18.3292,VALID,107,VALID,0.426562,
2001-09-09, 02:40:00,VALID,917.81,VALID,0,VALID,97.705,VALID,-0.0169808,VALID,18.29,VALID,132,VALID,0.041174,
2001-09-09, 02:41:00,VALID,917.791,VALID,0,VALID,97.5779,VALID,0,VALID,18.2512,VALID,132,VALID,0,
2001-09-09, 02:42:00,VALID,917.78,VALID,0,VALID,97.4278,VALID,0,VALID,18.203,VALID,135,VALID,0.114231,
2001-09-09, 02:43:00,VALID,917.77,VALID,0,VALID,97.2879,VALID,0,VALID,18.1384,VALID,167,VALID,0.217147,
2001-09-09, 02:44:00,VALID,917.775,VALID,0,VALID,97.2421,VALID,0.0169808,VALID,18.0732,VALID,181,VALID,0.281473,
2001-09-09, 02:45:00,VALID,917.771,VALID,0,VALID,97.2943,VALID,0,VALID,18.0314,VALID,186,VALID,0.389597,
2001-09-09, 02:46:00,VALID,917.777,VALID,0,VALID,97.3935,VALID,0,VALID,18.0125,VALID,188,VALID,0.0424107,
2001-09-09, 02:47:00,VALID,917.764,VALID,0,VALID,97.3922,VALID,0,VALID,17.98,VALID,188,VALID,0,
2001-09-09, 02:48:00,VALID,917.76,VALID,0,VALID,97.3706,VALID,0.0169808,VALID,17.9509,VALID,160,VALID,0.259983,
2001-09-09, 02:49:00,VALID,917.751,VALID,0,VALID,97.7495,VALID,0,VALID,17.9318,VALID,119,VALID,0.588976,
2001-09-09, 02:50:00,VALID,917.75,VALID,0,VALID,98.0827,VALID,0,VALID,17.9606,VALID,107,VALID,0.709704,
2001-09-09, 02:51:00,VALID,917.735,VALID,0,VALID,98.248,VALID,0,VALID,17.9839,VALID,104,VALID,0.568359,
2001-09-09, 02:52:00,VALID,917.732,VALID,0,VALID,98.4998,VALID,0,VALID,18.0157,VALID,111,VALID,0.453993,
2001-09-09, 02:53:00,VALID,917.726,VALID,0,VALID,98.7197,VALID,-0.0169808,VALID,18.0905,VALID,125,VALID,0.712377,
2001-09-09, 02:54:00,VALID,917.716,VALID,0,VALID,98.8113,VALID,0,VALID,18.1454,VALID,132,VALID,0.779688,
2001-09-09, 02:55:00,VALID,917.715,VALID,0,VALID,98.7643,VALID,-0.0339617,VALID,18.1744,VALID,135,VALID,1.02175,
2001-09-09, 02:56:00,VALID,917.721,VALID,0,VALID,98.8456,VALID,0.0339617,VALID,18.2097,VALID,142,VALID,1.52941,
2001-09-09, 02:57:00,VALID,917.723,VALID,0,VALID,98.9143,VALID,0,VALID,18.2808,VALID,148,VALID,1.46875,
2001-09-09, 02:58:00,VALID,917.72,VALID,0,VALID,98.8863,VALID,-0.0169808,VALID,18.313,VALID,144,VALID,1.55148,
2001-09-09, 02:59:00,VALID,917.708,VALID,0,VALID,98.8787,VALID,0,VALID,18.3486,VALID,145,VALID,1.43728,
2001-09-09, 03:00:00,VALID,917.709,VALID,0,VALID,98.7643,VALID,0,VALID,18.3483,VALID,143,VALID,1.3933,
2001-09-09, 03:01:00,VALID,917.703,VALID,0,VALID,98.6078,VALID,0,VALID,18.2997,VALID,135,VALID,1.0096,
2001-09-09, 03:02:00,VALID,917.711,VALID,0,VALID,98.5201,VALID,0,VALID,18.2353,VALID,137,VALID,0.996528,
2001-09-09, 03:03:00,VALID,917.703,VALID,0,VALID,98.4972,VALID,0,VALID,18.174,VALID,144,VALID,1.42274,
2001-09-09, 03:04:00,VALID,917.705,VALID,0,VALID,98.5315,VALID,0,VALID,18.1258,VALID,145,VALID,1.24002,
2001-09-09, 03:05:00,VALID,917.708,VALID,0,VALID,98.6613,VALID,0,VALID,18.0801,VALID,140,VALID,1.28022,
2001-09-09, 03:06:00,VALID,917.721,VALID,0,VALID,98.7019,VALID,0,VALID,18.0644,VALID,129,VALID,0.991319,
2001-09-09, 03:07:00,VALID,917.722,VALID,0,VALID,98.7604,VALID,0.0339617,VALID,18.0351,VALID,135,VALID,1.53255,
2001-09-09, 03:08:00,VALID,917.729,VALID,0,VALID,98.8685,VALID,0,VALID,18.0224,VALID,140,VALID,1.35567,
2001-09-09, 03:09:00,VALID,917.727,VALID,0,VALID,99.0097,VALID,-0.0169808,VALID,18.0549,VALID,151,VALID,1.14821,
2001-09-09, 03:10:00,VALID,917.719,VALID,0,VALID,99.0694,VALID,0.0169808,VALID,18.09,VALID,144,VALID,1.13176,
2001-09-09, 03:11:00,VALID,917.709,VALID,0,VALID,99.0644,VALID,0,VALID,18.0868,VALID,143,VALID,1.01792,
2001-09-09, 03:12:00,VALID,917.703,VALID,0,VALID,99.0758,VALID,0.0169808,VALID,18.0771,VALID,147,VALID,1.14527,
2001-09-09, 03:13:00,VALID,917.697,VALID,0,VALID,99.1038,VALID,0,VALID,18.0838,VALID,143,VALID,1.15184,
2001-09-09, 03:14:00,VALID,917.676,VALID,0,VALID,99.1127,VALID,0,VALID,18.0575,VALID,124,VALID,0.535937,
2001-09-09, 03:15:00,VALID,917.656,VALID,0,VALID,99.119,VALID,-0.0169808,VALID,18.0579,VALID,98,VALID,0.607319,
2001-09-09, 03:16:00,VALID,917.635,VALID,0,VALID,99.0923,VALID,-0.0169808,VALID,18.0321,VALID,109,VALID,0.935491,
2001-09-09, 03:17:00,VALID,917.618,VALID,0,VALID,99.1343,VALID,0,VALID,18.0063,VALID,103,VALID,1.0115,
2001-09-09, 03:18:00,VALID,917.6,VALID,0,VALID,99.2055,VALID,0,VALID,18.016,VALID,92,VALID,0.81467,
2001-09-09, 03:19:00,VALID,917.58,VALID,0,VALID,99.2462,VALID,-0.0339617,VALID,18.0226,VALID,104,VALID,0.85026,
2001-09-09, 03:20:00,VALID,917.574,VALID,0,VALID,99.2831,VALID,-0.0339617,VALID,18.0483,VALID,122,VALID,0.658717,
2001-09-09, 03:21:00,VALID,917.568,VALID,0,VALID,99.2347,VALID,0,VALID,18.0257,VALID,137,VALID,0.772135,
2001-09-09, 03:22:00,VALID,917.566,VALID,0,VALID,99.2653,VALID,0,VALID,18.0289,VALID,145,VALID,1.18793,
2001-09-09, 03:23:00,VALID,917.567,VALID,0,VALID,99.3009,VALID,0,VALID,18.0287,VALID,152,VALID,1.22327,
2001-09-09, 03:24:00,VALID,917.548,VALID,0,VALID,99.3301,VALID,-0.0169808,VALID,18.0383,VALID,135,VALID,1.20246,
2001-09-09, 03:25:00,VALID,917.541,VALID,0,VALID,99.3759,VALID,0,VALID,18.0835,VALID,148,VALID,1.48733,
2001-09-09, 03:26:00,VALID,917.531,VALID,0,VALID,99.3848,VALID,-0.0169808,VALID,18.1128,VALID,142,VALID,1.28562,
2001-09-09, 03:27:00,VALID,917.512,VALID,0,VALID,99.3886,VALID,0,VALID,18.1158,VALID,148,VALID,1.53104,
2001-09-09, 03:28:00,VALID,917.524,VALID,0,VALID,99.409,VALID,0,VALID,18.1391,VALID,148,VALID,1.64103,
2001-09-09, 03:29:00,VALID,917.515,VALID,0,VALID,99.4013,VALID,0,VALID,18.1548,VALID,150,VALID,1.41629,
2001-09-09, 03:30:00,VALID,917.515,VALID,0,VALID,99.3759,VALID,0,VALID,18.1451,VALID,154,VALID,1.37767,
2001-09-09, 03:31:00,VALID,917.509,VALID,0,VALID,99.3543,VALID,0,VALID,18.1094,VALID,157,VALID,1.30759,
2001-09-09, 03:32:00,VALID,917.497,VALID,0,VALID,99.3594,VALID,-0.0169808,VALID,18.0805,VALID,154,VALID,0.942925,
2001-09-09, 03:33:00,VALID,917.502,VALID,0,VALID,99.3581,VALID,0,VALID,18.0646,VALID,149,VALID,0.897352,
2001-09-09, 03:34:00,VALID,917.503,VALID,0,VALID,99.3594,VALID,0,VALID,18.042,VALID,155,VALID,1.35395,